Weather reports worldwide

Advertisment
Spa/La Sauveniere, Belgium (6490): temperature & dewpoint: 02.08.2020 19:00:00 - 08.08.2020 19:00:00 (CEST)Spa/La Sauveniere, Belgium (6490): wind speed & gusts: 02.08.2020 19:00:00 - 08.08.2020 19:00:00 (CEST)Spa/La Sauveniere, Belgium (6490): wind direction: 02.08.2020 19:00:00 - 08.08.2020 19:00:00 (CEST)Spa/La Sauveniere, Belgium (6490): reduced air pressure: 02.08.2020 19:00:00 - 08.08.2020 19:00:00 (CEST)Spa/La Sauveniere, Belgium (6490): visibility: 02.08.2020 19:00:00 - 08.08.2020 19:00:00 (CEST)
Date & Time tt [°C] td [°C] ff [km/h] ff [kn] fx [km/h] fx [kn] dd ppp [hPa] vv [km]
08.08.2020 19:00:00 31,5 13,5 7 4 18 10 N 1016,5 29
08.08.2020 18:00:00 32,5 13,7 7 4 14 8 SSW 1016,6 35
08.08.2020 17:00:00 32,2 12,9 11 6 - - NNW 1017,0 35
08.08.2020 16:00:00 32,2 12,8 7 4 14 8 W 1017,3 35
08.08.2020 15:00:00 30,9 12,5 7 4 14 8 S 1017,7 35
08.08.2020 14:00:00 31,6 14,4 7 4 - - - 1017,9 35
08.08.2020 13:00:00 30,7 13,2 7 4 22 12 SSW 1018,4 35
08.08.2020 12:00:00 30,2 12,3 7 4 18 10 SSW 1018,8 30
08.08.2020 11:00:00 29,1 14,6 7 4 - - SSE 1019,0 30
08.08.2020 10:00:00 27,6 14,9 11 6 18 10 SSE 1019,3 30
08.08.2020 09:00:00 25,6 15,1 14 8 18 10 SSE 1019,6 35
08.08.2020 08:00:00 23,0 14,7 11 6 - - SSE 1019,9 40
08.08.2020 07:00:00 21,7 13,8 14 8 18 10 S 1019,8 45
08.08.2020 06:00:00 22,3 13,2 14 8 18 10 S 1019,4 45
08.08.2020 05:00:00 22,6 12,3 14 8 - - SSE 1019,2 45
08.08.2020 04:00:00 22,2 12,1 14 8 22 12 SSE 1019,3 45
08.08.2020 03:00:00 23,2 11,6 18 10 22 12 SSE 1019,2 45
08.08.2020 02:00:00 23,7 11,3 18 10 - - SSE 1019,1 45
08.08.2020 01:00:00 23,6 10,9 14 8 18 10 SSE 1019,1 45
08.08.2020 00:00:00 24,6 10,1 11 6 22 12 SE 1019,0 45
07.08.2020 23:00:00 25,8 9,4 18 10 - - ESE 1018,5 45
07.08.2020 22:00:00 25,0 11,3 11 6 14 8 ESE 1018,5 45
07.08.2020 21:00:00 26,3 12,8 4 2 18 10 ENE 1017,9 22
07.08.2020 20:00:00 28,5 11,3 11 6 - - NE 1017,5 35
07.08.2020 19:00:00 30,7 10,9 7 4 14 8 WSW 1017,2 40
07.08.2020 18:00:00 31,1 10,0 7 4 18 10 S 1017,3 35
07.08.2020 17:00:00 30,7 11,0 7 4 - - - 1017,6 35
07.08.2020 16:00:00 30,6 11,3 4 2 22 12 - 1018,0 28
07.08.2020 15:00:00 29,8 10,7 0 0 25 14 N 1018,4 35
07.08.2020 14:00:00 28,8 11,2 7 4 - - - 1018,9 35
07.08.2020 13:00:00 27,9 12,3 7 4 22 12 - 1019,4 30
07.08.2020 12:00:00 27,1 11,8 11 6 18 10 SSE 1019,9 35
07.08.2020 11:00:00 26,4 12,1 11 6 - - SE 1020,2 30
07.08.2020 10:00:00 25,3 11,9 11 6 18 10 SE 1020,4 35
07.08.2020 09:00:00 23,8 13,2 14 8 18 10 SSE 1020,3 30
07.08.2020 08:00:00 20,9 12,3 14 8 - - SSE 1020,7 45
07.08.2020 07:00:00 20,1 11,2 14 8 22 12 SSE 1020,4 45
07.08.2020 06:00:00 20,2 10,9 18 10 22 12 SSE 1020,1 45
07.08.2020 05:00:00 20,7 11,3 14 8 - - SSE 1019,9 45
07.08.2020 04:00:00 20,5 10,9 14 8 25 14 SSE 1020,1 50
07.08.2020 03:00:00 20,5 10,5 14 8 22 12 SSE 1020,3 45
07.08.2020 02:00:00 20,7 10,6 18 10 - - SSE 1020,3 45
07.08.2020 01:00:00 21,0 10,7 18 10 22 12 SSE 1020,2 45
07.08.2020 00:00:00 20,6 11,0 14 8 18 10 SSE 1020,2 45
06.08.2020 23:00:00 22,1 9,8 11 6 - - SE 1019,7 45
06.08.2020 22:00:00 21,0 10,2 11 6 11 6 SSE 1019,7 45
06.08.2020 21:00:00 22,9 13,0 7 4 7 4 SSE 1018,9 45
06.08.2020 20:00:00 27,2 10,9 7 4 - - S 1018,0 29
06.08.2020 19:00:00 28,2 8,9 4 2 18 10 - 1017,7 40
06.08.2020 18:00:00 28,0 9,7 4 2 18 10 - 1017,8 35
06.08.2020 17:00:00 28,0 9,5 7 4 - - S 1017,9 35
06.08.2020 16:00:00 27,6 10,1 7 4 22 12 - 1018,0 30
06.08.2020 15:00:00 26,7 9,5 11 6 22 12 S 1018,4 35
06.08.2020 14:00:00 25,1 9,9 7 4 - - SSE 1019,0 40
06.08.2020 13:00:00 24,9 9,1 11 6 22 12 SSE 1019,4 40
06.08.2020 12:00:00 24,3 9,1 11 6 36 19 SSE 1019,5 40
06.08.2020 11:00:00 22,8 9,1 25 14 - - SSE 1019,4 35
06.08.2020 10:00:00 21,1 9,3 25 14 36 19 SSE 1019,6 35
06.08.2020 09:00:00 19,8 9,3 22 12 29 16 SSE 1019,5 45
06.08.2020 08:00:00 18,0 8,5 18 10 - - SSE 1019,5 40
06.08.2020 07:00:00 17,4 7,7 22 12 29 16 SSE 1019,2 45
06.08.2020 06:00:00 17,2 7,3 22 12 29 16 SSE 1019,0 45
06.08.2020 05:00:00 17,3 7,3 18 10 - - SSE 1018,8 45
06.08.2020 04:00:00 17,5 7,1 18 10 25 14 SSE 1018,6 45
06.08.2020 03:00:00 17,8 7,2 18 10 25 14 SSE 1018,3 45
06.08.2020 02:00:00 18,0 7,2 22 12 - - SSE 1018,2 45
06.08.2020 01:00:00 17,4 7,6 11 6 14 8 SSE 1018,2 45
06.08.2020 00:00:00 16,4 8,7 11 6 14 8 S 1018,2 45
05.08.2020 23:00:00 17,1 9,2 11 6 - - S 1017,8 40
05.08.2020 22:00:00 18,2 10,0 11 6 11 6 S 1017,3 40
05.08.2020 21:00:00 20,7 10,6 7 4 11 6 S 1016,3 30
05.08.2020 20:00:00 25,1 9,7 7 4 - - S 1015,3 35
05.08.2020 19:00:00 25,5 7,4 11 6 22 12 S 1015,1 30
05.08.2020 18:00:00 25,5 6,6 11 6 22 12 S 1015,2 30
05.08.2020 17:00:00 25,3 6,0 7 4 - - - 1015,2 30
05.08.2020 16:00:00 25,0 7,0 7 4 25 14 - 1015,5 40
05.08.2020 15:00:00 24,2 8,2 7 4 22 12 - 1015,9 40
05.08.2020 14:00:00 23,6 7,0 4 2 - - - 1016,3 40
05.08.2020 13:00:00 22,7 6,7 7 4 25 14 SW 1016,8 45
05.08.2020 12:00:00 21,2 6,5 11 6 25 14 S 1017,4 35
05.08.2020 11:00:00 19,6 6,9 14 8 - - SSW 1017,9 30
05.08.2020 10:00:00 18,6 6,6 14 8 22 12 S 1018,2 30
05.08.2020 09:00:00 16,6 7,5 14 8 22 12 S 1018,2 40
05.08.2020 08:00:00 14,3 6,6 14 8 - - SSE 1018,1 35
05.08.2020 07:00:00 13,1 6,0 14 8 25 14 SSE 1018,0 45
05.08.2020 06:00:00 12,5 5,8 14 8 22 12 SSE 1018,0 45
05.08.2020 05:00:00 12,9 5,9 18 10 - - SSE 1017,9 50
05.08.2020 04:00:00 13,1 6,1 14 8 18 10 SSE 1018,1 50
05.08.2020 03:00:00 12,9 6,8 14 8 18 10 SSE 1018,1 45
05.08.2020 02:00:00 12,8 6,5 14 8 - - SSE 1018,2 45
05.08.2020 01:00:00 14,0 6,8 14 8 18 10 SSE 1018,0 45
05.08.2020 00:00:00 12,3 6,8 14 8 18 10 SSE 1018,6 40
04.08.2020 23:00:00 12,6 7,2 7 4 - - SSE 1018,4 45
04.08.2020 22:00:00 12,9 8,3 4 2 7 4 SSE 1018,4 45
04.08.2020 21:00:00 15,7 9,5 4 2 7 4 SSW 1017,6 45
04.08.2020 20:00:00 18,6 6,5 4 2 - - WNW 1017,0 45
04.08.2020 19:00:00 19,4 5,3 7 4 22 12 WNW 1016,9 40
04.08.2020 18:00:00 19,1 5,0 4 2 22 12 - 1016,9 35
04.08.2020 17:00:00 20,0 6,9 7 4 - - NW 1016,8 35
04.08.2020 16:00:00 19,0 6,4 11 6 25 14 NNW 1017,2 30
04.08.2020 15:00:00 18,6 6,7 7 4 25 14 - 1017,4 35
04.08.2020 14:00:00 17,5 7,2 7 4 - - NE 1017,7 30
04.08.2020 13:00:00 16,8 7,0 11 6 22 12 N 1017,7 40
04.08.2020 12:00:00 15,7 8,8 11 6 18 10 NNW 1017,9 30
04.08.2020 11:00:00 13,9 10,6 11 6 - - WNW 1017,9 26
04.08.2020 10:00:00 13,0 10,7 11 6 18 10 NNW 1018,1 17
04.08.2020 09:00:00 11,5 11,0 11 6 14 8 N 1018,0 5
04.08.2020 08:00:00 11,0 10,7 7 4 - - NNW 1017,6 3,1
04.08.2020 07:00:00 10,8 10,5 4 2 7 4 N 1017,1 4,2
04.08.2020 06:00:00 10,6 9,9 4 2 4 2 NW 1016,8 -
04.08.2020 05:00:00 10,5 9,6 0 0 - - N 1016,5 15
04.08.2020 04:00:00 10,0 9,1 4 2 7 4 NE 1016,4 22
04.08.2020 03:00:00 9,4 8,1 0 0 11 6 N 1016,5 40
04.08.2020 02:00:00 9,9 8,2 7 4 - - N 1016,6 45
04.08.2020 01:00:00 10,6 8,3 4 2 11 6 NNW 1016,4 45
04.08.2020 00:00:00 11,4 8,7 7 4 14 8 NW 1015,5 45
03.08.2020 23:00:00 11,8 9,3 7 4 - - NW 1015,2 30
03.08.2020 22:00:00 12,8 9,3 4 2 18 10 NNE 1014,6 35
03.08.2020 21:00:00 14,5 9,6 11 6 25 14 N 1013,5 35
03.08.2020 20:00:00 15,9 10,1 11 6 - - NW 1012,7 35
03.08.2020 19:00:00 17,9 9,0 4 2 11 6 - 1011,9 30
03.08.2020 18:00:00 17,8 8,1 4 2 14 8 NNE 1012,3 35
03.08.2020 17:00:00 18,0 9,4 4 2 - - - 1012,3 30
03.08.2020 16:00:00 17,6 10,2 4 2 11 6 - 1012,8 30
03.08.2020 15:00:00 16,0 9,5 7 4 14 8 WNW 1013,4 40
03.08.2020 14:00:00 16,4 9,5 11 6 - - NNW 1013,5 30
03.08.2020 13:00:00 16,1 9,1 7 4 18 10 WNW 1013,7 40
03.08.2020 12:00:00 16,6 8,5 11 6 18 10 N 1013,8 30
03.08.2020 11:00:00 15,6 10,0 7 4 - - NNW 1014,2 30
03.08.2020 10:00:00 15,5 10,5 4 2 11 6 NNW 1014,2 28
03.08.2020 09:00:00 14,7 10,7 4 2 7 4 NNE 1014,3 40
03.08.2020 08:00:00 12,4 10,4 4 2 - - - 1014,9 27
03.08.2020 07:00:00 10,1 9,2 4 2 7 4 SE 1015,4 -
03.08.2020 06:00:00 9,7 9,1 4 2 7 4 S 1015,7 11
03.08.2020 05:00:00 10,5 9,4 4 2 - - SSW 1015,6 15
03.08.2020 04:00:00 10,5 9,5 4 2 7 4 SE 1015,8 26
03.08.2020 03:00:00 11,3 9,9 7 4 11 6 ESE 1016,1 24
03.08.2020 02:00:00 11,6 10,5 4 2 - - - 1016,3 25
03.08.2020 01:00:00 12,6 11,8 0 0 11 6 N 1016,5 27
03.08.2020 00:00:00 13,4 12,2 0 0 11 6 N 1016,3 14
02.08.2020 23:00:00 14,6 12,6 7 4 - - NNE 1016,2 27
02.08.2020 22:00:00 15,4 13,5 7 4 18 10 - 1016,1 10
02.08.2020 21:00:00 16,2 14,3 4 2 11 6 ENE 1015,7 19
02.08.2020 20:00:00 17,7 12,0 4 2 - - NNE 1015,1 30
02.08.2020 19:00:00 18,5 11,4 11 6 22 12 N 1015,0 30

tt = temperature
td = dewpoint
ff = wind speed
fx = gusts
dd = wind direction
ppp = reduced air pressure
vv = visibility

Next stations